Weather History for Staunton, VA

Change the Weather History Date:

Thursday, May 9, 2013

  Actual Average Record
Temperature  
Mean Temperature 62 °F -  
Max Temperature 79 °F 73 °F 89 °F (2004)
Min Temperature 46 °F 49 °F 39 °F (2005)
Degree Days  
Heating Degree Days 2    
Growing Degree Days 12 (Base 50)    
Moisture  
Dew Point 50 °F    
Average Humidity 59    
Maximum Humidity 97    
Minimum Humidity 25    
Precipitation  
Precipitation 0.01 in - - ()
Sea Level Pressure  
Sea Level Pressure 30.03 in    
Wind  
Wind Speed 3 mph (NW)    
Max Wind Speed 15 mph    
Max Gust Speed 20 mph    
Visibility 8 miles    
Events Fog , Rain    
Averages and records for this station are not official NWS values.
T = Trace of Precipitation, MM = Missing Value Source: NWS Daily Summary

Daily Weather History Graph

Daily Weather History Graph

Search for Another Location

Airport:

Trip Planner

Search our weather history database for the weather conditions in past years. The results will help you decide how hot, cold, wet, or windy it might be!

Date:

Astronomy

May. 09, 2013 Rise Set
Actual Time 6:09 AM EDT 8:14 PM EDT
Civil Twilight 5:40 AM EDT 8:43 PM EDT
Nautical Twilight 5:05 AM EDT 9:19 PM EDT
Astronomical Twilight 4:26 AM EDT 9:58 PM EDT
Moon 5:52 AM EDT (5/9) 8:08 PM EDT (5/9)
Length of Visible Light 15h 03m
Length of Day
14h 04m
Waning Crescent, 0% of the Moon is Illuminated
May 9
Waning Crescent
May 9
New
May 18
First Quarter
May 25
Full
May 31
Last Quarter

Hourly Weather History & Observations

Time (EDT) Temp. Dew Point Humidity Pressure Visibility Wind Dir Wind Speed Gust Speed Precip Events Conditions
12:15 AM 51.3 °F 50.2 °F 96% 30.01 in 0.2 mi Calm Calm - N/A Fog Fog
12:35 AM 50.9 °F 49.6 °F 95% 30.01 in 0.2 mi Calm Calm - N/A Fog Fog
2:55 AM 49.5 °F 48.4 °F 96% 29.99 in 0.2 mi Calm Calm - 0.01 in Fog Fog
3:55 AM 48.7 °F 47.7 °F 96% 29.97 in 0.2 mi Calm Calm - N/A Fog Fog
4:15 AM 48.2 °F 47.3 °F 97% 29.98 in 0.2 mi Calm Calm - N/A Fog Fog
5:55 AM 46.6 °F 45.7 °F 97% 29.98 in 0.5 mi Calm Calm - N/A Fog Fog
7:35 AM 49.1 °F 48.2 °F 97% 30.01 in 10.0 mi SSW 3.5 mph - N/A   Overcast
7:55 AM 50.0 °F 49.1 °F 97% 30.02 in 7.0 mi Calm Calm - N/A Rain Light Rain
8:15 AM 50.5 °F 49.6 °F 97% 30.03 in 10.0 mi Calm Calm - N/A   Overcast
9:15 AM 54.9 °F 53.8 °F 96% 30.04 in 10.0 mi Calm Calm - N/A   Overcast
10:55 AM 62.8 °F 56.8 °F 81% 30.04 in 10.0 mi SSE 3.5 mph - N/A   Scattered Clouds
11:15 AM 63.9 °F 57.0 °F 78% 30.04 in 10.0 mi SSE 5.8 mph - N/A   Clear
11:35 AM 66.0 °F 57.0 °F 73% 30.03 in 5.0 mi SE 4.6 mph - N/A   Haze
11:55 AM 68.2 °F 57.6 °F 69% 30.04 in 5.0 mi SW 3.5 mph - N/A   Haze
12:15 PM 70.5 °F 57.4 °F 63% 30.04 in 7.0 mi SW 4.6 mph - N/A   Scattered Clouds
12:35 PM 71.2 °F 56.3 °F 59% 30.04 in 5.0 mi SW 4.6 mph - N/A   Haze
12:55 PM 73.6 °F 54.3 °F 51% 30.04 in 7.0 mi WNW 15.0 mph 19.6 mph N/A   Mostly Cloudy
1:15 PM 73.8 °F 52.7 °F 48% 30.04 in 7.0 mi NW 12.7 mph 17.3 mph N/A   Scattered Clouds
1:35 PM 73.4 °F 52.7 °F 48% 30.04 in 5.0 mi WNW 10.4 mph 18.4 mph N/A   Haze
1:55 PM 75.2 °F 52.3 °F 45% 30.04 in 10.0 mi WNW 12.7 mph 18.4 mph N/A   Scattered Clouds
2:15 PM 75.7 °F 51.6 °F 43% 30.03 in 10.0 mi NNW 10.4 mph 18.4 mph N/A   Clear
2:35 PM 75.4 °F 50.7 °F 42% 30.03 in 10.0 mi NW 10.4 mph - N/A   Clear
2:55 PM 76.3 °F 50.2 °F 40% 30.03 in 10.0 mi WNW 12.7 mph 19.6 mph N/A   Clear
3:15 PM 76.8 °F 50.0 °F 39% 30.02 in 10.0 mi WNW 10.4 mph - N/A   Clear
3:35 PM 76.1 °F 49.8 °F 40% 30.02 in 10.0 mi NW 10.4 mph - N/A   Scattered Clouds
3:55 PM 77.7 °F 47.8 °F 35% 30.01 in 10.0 mi NNW 5.8 mph - N/A   Scattered Clouds
4:15 PM 78.3 °F 47.7 °F 34% 30.00 in 10.0 mi NNW 9.2 mph - N/A   Clear
4:35 PM 78.3 °F 46.9 °F 33% 30.00 in 10.0 mi NNW 6.9 mph - N/A   Clear
4:55 PM 79.0 °F 43.9 °F 29% 29.99 in 10.0 mi NW 6.9 mph - N/A   Clear
5:15 PM 79.5 °F 42.3 °F 27% 29.99 in 10.0 mi NW 5.8 mph - N/A   Scattered Clouds
5:35 PM 79.7 °F 40.6 °F 25% 29.99 in 10.0 mi North 6.9 mph - N/A   Clear
5:55 PM 79.7 °F 41.5 °F 26% 29.99 in 10.0 mi NNW 8.1 mph - N/A   Clear
6:15 PM 78.6 °F 42.3 °F 27% 29.99 in 10.0 mi NNW 4.6 mph - N/A   Clear
6:35 PM 76.3 °F 41.7 °F 29% 29.99 in 10.0 mi NNW 3.5 mph - N/A   Clear
6:55 PM 76.3 °F 42.8 °F 30% 29.99 in 10.0 mi Calm Calm - N/A   Mostly Cloudy
7:15 PM 73.0 °F 49.8 °F 44% 30.00 in 10.0 mi Calm Calm - N/A   Overcast
7:35 PM 70.9 °F 50.2 °F 48% 30.02 in 10.0 mi Calm Calm - N/A   Overcast
7:55 PM 72.0 °F 48.9 °F 44% 30.03 in 10.0 mi NW 4.6 mph - N/A   Overcast
8:15 PM 72.7 °F 47.5 °F 41% 30.03 in 10.0 mi NNW 4.6 mph - N/A   Overcast
8:35 PM 71.8 °F 48.4 °F 43% 30.04 in 10.0 mi Calm Calm - N/A   Overcast
8:55 PM 71.6 °F 48.2 °F 43% 30.05 in 10.0 mi NW 3.5 mph - N/A   Overcast
9:15 PM 71.2 °F 48.2 °F 44% 30.05 in 10.0 mi NW 5.8 mph - N/A   Overcast
9:35 PM 68.4 °F 51.3 °F 54% 30.07 in 10.0 mi Calm Calm - N/A   Overcast
9:55 PM 66.0 °F 52.2 °F 61% 30.07 in 10.0 mi Calm Calm - N/A   Mostly Cloudy
10:15 PM 66.2 °F 51.6 °F 59% 30.07 in 10.0 mi Calm Calm - N/A   Mostly Cloudy
10:35 PM 61.0 °F 54.1 °F 78% 30.07 in 10.0 mi WSW 3.5 mph - N/A   Scattered Clouds
10:55 PM 62.6 °F 52.7 °F 70% 30.07 in 10.0 mi Calm Calm - N/A   Mostly Cloudy
11:15 PM 61.0 °F 52.7 °F 74% 30.06 in 10.0 mi Calm Calm - N/A   Scattered Clouds
11:35 PM 61.7 °F 52.5 °F 72% 30.06 in 10.0 mi Calm Calm - N/A   Scattered Clouds
11:55 PM 58.3 °F 53.2 °F 83% 30.07 in 10.0 mi Calm Calm - N/A   Scattered Clouds